Location: Gwatt
(46.7204°N, 7.6223°E)
Time: 08:08:13
(UTC+00:00)

Vanguard 3 - Pass Details

Date: 28 January 2021
Orbit: 508 x 3261 km, 33.3° (Epoch: 24 February)

Event Time Altitude Azimuth Distance (km) Brightness Sun altitude
Exits shadow 03:44:45 31° 176° (S) 2,045 9.0 -33.1°
Maximum altitude 03:45:12 31° 170° (S) 2,081 9.1 -33.1°
Drops below altitude 10° 03:54:08 10° 115° (ESE) 4,303 11.5 -31.6°
Sets 03:59:05 0° 107° (ESE) 5,804 12.5 -30.7°
